This demonstration page uses our WeatherBlox Daily Observations layout. Learn more.

Left ArrowRight Arrow

36.17497, -115.13722

Hourly Observations for June 16, 2019

Temp ( °F °C ) Dew Point ( °F °C ) Humidity (%) Winds ( mph kmh ) Pressure ( in mb ) Visibility ( mi km ) Precip ( " mm )
12:53 am 00:53 Clear 86 30 43 6.1 22 22 WNW 6 9 29.70 1006 10 16 0.00 0.00
1:53 am 01:53 Clear 85 29.4 41 5 21 21 NW 3 6 29.69 1005 10 16 0.00 0.00
2:53 am 02:53 Clear 81 27.2 43 6.1 26 26 NNW 6 9 29.70 1006 10 16 0.00 0.00
3:53 am 03:53 Clear 82 27.8 40 4.4 22 22 VRB 3 6 29.70 1006 10 16 0.00 0.00
4:53 am 04:53 Clear 81 27.2 41 5 24 24 WNW 3 6 29.72 1007 10 16 0.00 0.00
5:53 am 05:53 Sunny 80 26.7 41 5 25 25 WNW 6 9 29.74 1007 10 16 0.00 0.00
6:53 am 06:53 Sunny 82 27.8 42 5.6 24 24 N 3 6 29.75 1008 10 16 0.00 0.00
7:53 am 07:53 Sunny 86 30 42 5.6 21 21 NE 3 6 29.76 1008 10 16 0.00 0.00
8:53 am 08:53 Sunny 88 31.1 40 4.4 18 18 SE 3 6 29.77 1008 10 16 0.00 0.00
9:53 am 09:53 Sunny 91 32.8 41 5 17 17 S 5 7 29.77 1008 10 16 0.00 0.00
10:53 am 10:53 Sunny 94 34.4 41 5 16 16 SSE 9 15 29.76 1008 10 16 0.00 0.00
11:53 am 11:53 Sunny 95 35 41 5 15 15 VRB 7 11 29.75 1008 10 16 0.00 0.00
12:53 pm 12:53 Sunny 97 36.1 38 3.3 13 13 ESE 10 17 29.73 1007 10 16 0.00 0.00
1:53 pm 13:53 Sunny 99 37.2 38 3.3 12 12 undefined N/A 29.70 1006 10 16 0.00 0.00
2:53 pm 14:53 Sunny 98 36.7 37 2.8 12 12 SSW 8 13 29.68 1005 10 16 0.00 0.00
3:53 pm 15:53 Sunny 99 37.2 38 3.3 12 12 SSE 7 11 29.64 1004 10 16 0.00 0.00
4:53 pm 16:53 Sunny 100 37.8 35 1.7 10 10 SW 18 30 29.63 1003 10 16 0.00 0.00
5:53 pm 17:53 Sunny 98 36.7 33 0.6 10 10 S 3 6 29.63 1003 10 16 0.00 0.00
6:17 pm 18:17 Sunny 99 37.2 35 1.7 11 11 W 16 26 29.47 998 10 16 0.00 0.00
6:53 pm 18:53 Sunny 98 36.7 33 0.6 10 10 SW 10 17 29.63 1003 10 16 0.00 0.00
7:53 pm 19:53 Sunny 94 34.4 42 5.6 17 17 NW 7 11 29.67 1005 10 16 0.00 0.00
8:21 pm 20:21 Clear 91 32.8 45 7.2 20 20 NE 10 17 29.56 1001 10 16 0.00 0.00
8:53 pm 20:53 Clear 88 31.1 46 7.8 23 23 E 14 22 29.72 1006 10 16 0.00 0.00
9:53 pm 21:53 Clear 84 28.9 48 8.9 29 29 E 13 20 29.76 1008 10 16 0.00 0.00
10:53 pm 22:53 Clear 85 29.4 45 7.2 25 25 ENE 12 19 29.79 1009 10 16 0.00 0.00
11:22 pm 23:22 Clear 83 28.3 46 7.8 27 27 E 9 15 29.70 1006 10 16 0.00 0.00
11:53 pm 23:53 Clear 82 27.8 46 7.8 28 28 E 17 28 29.80 1009 10 16 0.00 0.00

Powered by AerisWeather